Beaver, WV

10:00 PM EST on February 24, 2017 (GMT -0500)
Raleigh County Memorial

Weather History for KBKW - September, 2013

Change the Weather History Date:

Saturday, September 7, 2013

  Actual Average Record
Temperature  
Mean Temperature 64 °F 66 °F  
Max Temperature 78 °F 76 °F 89 °F (2007)
Min Temperature 50 °F 57 °F 34 °F (1940)
Degree Days  
Heating Degree Days 1 2  
Month to date heating degree days 1 9  
Since 1 July heating degree days 21 30  
Cooling Degree Days 0 3  
Month to date cooling degree days 16 24  
Year to date cooling degree days 559 517  
Growing Degree Days 14 (Base 50)    
Moisture  
Dew Point 51 °F    
Average Humidity 64    
Maximum Humidity 96    
Minimum Humidity 31    
Precipitation  
Precipitation 0.00 in 0.10 in 1.20 in (1910)
Month to date precipitation 0.09 0.69  
Year to date precipitation 30.06 30.35  
Snow  
Snow 0.00 in - - ()
Month to date snowfall 0.0  
Since 1 September snowfall 0.0  
Snow Depth 0.00 in    
Sea Level Pressure  
Sea Level Pressure 30.07 in    
Wind  
Wind Speed 3 mph (West)    
Max Wind Speed 13 mph    
Max Gust Speed 17 mph    
Visibility 10 miles    
Events      
T = Trace of Precipitation, MM = Missing Value Source: NWS Daily Summary

Daily Weather History Graph

Daily Weather History Graph

Search for Another Location

Airport or City:

Trip Planner

Search our weather history database for the weather conditions in past years. The results will help you decide how hot, cold, wet, or windy it might be!

Date:

Astronomy

Sep. 07, 2013 Rise Set
Actual Time 6:59 AM EDT 7:44 PM EDT
Civil Twilight 6:33 AM EDT 8:10 PM EDT
Nautical Twilight 6:01 AM EDT 8:42 PM EDT
Astronomical Twilight 5:29 AM EDT 9:14 PM EDT
Moon 9:09 AM EDT (9/7) 8:45 PM EDT (9/7)
Length of Visible Light 13h 37m
Length of Day
12h 44m
Waxing Crescent, 5% of the Moon is Illuminated
Sep 7
Waxing Crescent
Sep 12
First Quarter
Sep 19
Full
Sep 26
Last Quarter
Oct 4
New

Hourly Weather History & Observations

Time (EDT) Temp. Dew Point Humidity Pressure Visibility Wind Dir Wind Speed Gust Speed Precip Events Conditions
12:51 AM 59.0 °F 51.1 °F 75% 30.12 in 10.0 mi Calm Calm - N/A   Clear
1:51 AM 55.9 °F 50.0 °F 80% 30.12 in 10.0 mi Calm Calm - N/A   Clear
2:51 AM 55.0 °F 50.0 °F 83% 30.10 in 10.0 mi Calm Calm - N/A   Clear
3:51 AM 55.0 °F 52.0 °F 89% 30.10 in 9.0 mi Calm Calm - N/A   Clear
4:51 AM 55.0 °F 52.0 °F 89% 30.09 in 10.0 mi Calm Calm - N/A   Clear
5:51 AM 53.1 °F 51.1 °F 93% 30.10 in 10.0 mi Calm Calm - N/A   Clear
6:51 AM 52.0 °F 50.0 °F 93% 30.12 in 8.0 mi Calm Calm - N/A   Clear
7:51 AM 53.1 °F 51.1 °F 93% 30.12 in 10.0 mi Calm Calm - N/A   Clear
8:51 AM 62.1 °F 55.9 °F 80% 30.11 in 10.0 mi SSW 3.5 mph - N/A   Clear
9:51 AM 64.9 °F 55.0 °F 70% 30.12 in 10.0 mi WSW 4.6 mph - N/A   Clear
10:51 AM 71.1 °F 53.1 °F 53% 30.11 in 10.0 mi West 5.8 mph - N/A   Clear
11:51 AM 73.0 °F 46.9 °F 39% 30.10 in 10.0 mi WNW 4.6 mph - N/A   Clear
12:51 PM 75.0 °F 43.0 °F 32% 30.08 in 10.0 mi WNW 8.1 mph - N/A   Clear
1:51 PM 77.0 °F 46.9 °F 34% 30.06 in 10.0 mi WNW 8.1 mph - N/A   Clear
2:51 PM 77.0 °F 48.9 °F 37% 30.04 in 10.0 mi NW 9.2 mph - N/A   Clear
3:51 PM 78.1 °F 48.9 °F 36% 30.02 in 10.0 mi WNW 9.2 mph - N/A   Clear
4:51 PM 77.0 °F 50.0 °F 39% 30.02 in 10.0 mi NW 6.9 mph - N/A   Clear
5:51 PM 75.9 °F 50.0 °F 40% 30.02 in 10.0 mi West 8.1 mph - N/A   Clear
6:51 PM 73.9 °F 50.0 °F 43% 30.03 in 10.0 mi WNW 5.8 mph - N/A   Clear
7:51 PM 69.1 °F 53.1 °F 57% 30.04 in 10.0 mi Calm Calm - N/A   Clear
8:51 PM 64.0 °F 54.0 °F 70% 30.04 in 10.0 mi Calm Calm - N/A   Clear
9:51 PM 62.1 °F 54.0 °F 75% 30.04 in 10.0 mi Calm Calm - N/A   Clear
10:51 PM 60.1 °F 53.1 °F 78% 30.01 in 10.0 mi Calm Calm - N/A   Clear
11:51 PM 59.0 °F 54.0 °F 83% 30.02 in 10.0 mi South 3.5 mph - N/A   Clear